Temperature
21 19 19 21 25 29 31 30 30 31 31 29 29 29 29 28 28 26 22 21 21 20 20 21 20 20 20 20 20 20 20 20 20 20 20 20 19 19 19 19 19 19 19 19 19 18 18 18 19
20 19 20 24 29 31 30 30 30 30 29 29 28 28 28 26 24 22 21 20 20 20 20 20 20 20 20 20 20 20 20 20 20 20 20 19 19 19 19 19 19 19 19 19 19 18 18 18 19
19 20 24 28 30 30 30 30 30 29 29 29 29 28 27 25 23 22 21 20 20 20 19 20 20 20 20 20 20 20 20 20 20 19 19 19 19 19 19 19 19 19 18 18 18 18 18 18 18
20 22 25 29 30 30 29 30 30 30 29 29 29 27 24 21 22 21 20 20 20 19 19 19 20 20 20 19 19 19 19 19 19 19 19 19 19 19 19 19 19 19 18 18 18 18 18 18 18
22 26 29 30 30 30 30 29 29 30 30 28 29 27 24 20 20 20 20 20 20 20 19 19 20 19 19 19 19 19 19 19 19 19 19 19 19 19 19 19 19 19 18 18 18 18 18 18 18
25 28 30 30 30 30 30 29 29 29 28 28 28 27 22 19 19 20 20 20 20 20 19 19 19 19 19 19 19 19 19 19 19 19 19 19 18 18 18 18 18 18 18 18 18 18 18 18 18
26 28 30 30 29 29 29 29 29 29 28 27 27 27 22 19 19 20 19 20 20 20 19 19 19 19 19 19 19 19 19 19 19 19 18 18 18 18 18 18 18 18 18 18 18 18 18 18 18
25 28 29 30 29 29 29 29 28 28 27 25 26 26 24 19 19 20 19 19 19 19 19 18 19 18 18 18 19 19 19 19 19 19 18 18 18 18 18 18 18 18 18 18 18 18 18 18 18
24 28 29 29 29 29 29 29 27 26 26 25 24 25 23 20 20 19 19 19 19 18 18 18 18 18 18 18 18 18 19 19 19 18 18 18 18 17 17 18 17 18 18 18 18 18 17 17 17
26 28 29 29 29 29 28 28 27 27 27 25 23 21 20 20 19 20 20 19 19 18 18 18 18 18 18 18 18 18 18 18 18 18 18 18 17 18 17 17 18 18 18 18 18 17 17 17 17
26 28 28 28 28 28 28 28 27 28 28 26 23 21 20 20 20 21 21 20 19 19 19 19 19 18 18 18 18 18 18 18 18 18 18 18 18 18 17 17 17 17 17 17 17 17 17 17 17
27 27 27 27 27 27 27 27 27 26 25 23 22 21 20 20 21 21 20 20 19 19 19 19 19 19 18 18 18 18 18 18 18 17 17 17 17 17 17 17 17 17 17 17 17 17 17 17 17
27 28 27 26 26 26 26 27 26 24 22 22 21 21 20 20 20 20 19 19 19 18 19 19 19 18 18 18 18 18 18 17 17 17 17 17 17 17 17 17 17 17 17 16 17 17 16 16 16
28 27 27 26 26 26 26 26 25 22 21 21 20 20 20 19 19 19 18 18 18 18 18 18 18 18 18 18 18 17 17 17 17 16 16 17 16 16 16 16 16 16 16 16 16 16 16 16 16
26 27 27 27 26 26 26 26 25 21 21 20 20 19 19 19 19 18 18 18 18 18 18 18 18 18 18 18 17 17 17 16 16 16 16 16 16 16 16 16 16 16 16 16 16 16 16 16 16
28 28 28 27 27 26 26 27 24 21 21 21 20 19 19 18 18 18 18 18 18 18 18 18 18 18 18 17 17 17 16 16 16 15 15 15 15 15 15 15 15 15 15 15 15 15 15 15 15
28 28 28 27 27 27 27 26 23 21 21 21 20 19 19 18 18 18 18 18 17 18 18 18 18 18 17 17 17 16 16 16 15 15 15 14 14 14 14 14 14 14 15 15 15 15 15 15 15
28 28 28 27 27 26 26 26 24 21 21 21 20 19 19 19 18 18 18 17 17 17 17 17 18 17 17 17 16 16 16 15 15 14 14 14 13 13 13 14 13 14 14 14 14 14 14 14 14
28 28 27 27 26 26 25 25 23 21 21 20 19 19 19 19 18 18 18 18 18 17 17 17 17 17 17 16 16 16 15 15 14 14 13 13 12 12 12 13 12 13 13 13 14 14 14 15 14
28 27 27 26 25 25 25 24 23 22 21 20 20 19 19 19 19 18 18 18 18 18 17 17 17 17 17 16 16 16 15 14 14 13 12 12 12 12 12 12 12 12 12 12 13 13 14 14 14
28 28 27 26 25 25 25 24 23 22 21 20 20 20 20 20 20 19 19 18 18 18 18 17 17 17 17 16 15 15 15 14 14 13 13 12 11 11 11 11 11 11 12 13 12 12 13 14 14
28 28 27 26 26 26 25 24 23 23 22 22 21 21 21 21 20 20 20 19 19 18 18 17 17 17 17 16 15 15 15 14 14 13 12 12 11 11 11 11 11 11 11 11 12 12 12 12 14
27 27 27 26 26 26 25 26 25 24 23 23 22 22 22 21 21 20 20 20 19 19 18 18 17 17 17 16 16 15 14 14 14 13 12 11 11 11 10 10 10 10 11 10 11 11 11 12 13
26 26 26 27 27 26 25 25 25 25 25 24 24 23 22 22 21 21 20 20 19 19 18 18 17 17 17 16 15 15 14 13 13 12 12 12 12 11 11 10 10 10 10 10 10 10 11 11 11
27 27 27 27 27 26 25 26 26 26 26 26 25 24 23 22 22 21 21 20 19 19 18 18 17 17 16 16 15 14 14 13 12 12 12 11 12 12 11 10 10 10 9 9 10 10 10 10 10
28 28 26 26 26 27 26 26 27 26 25 25 25 24 23 23 23 22 21 21 20 19 18 18 17 17 16 16 15 14 14 13 13 12 12 12 11 11 10 10 10 9 9 9 9 10 10 10 10
28 28 28 27 27 26 26 26 27 26 26 25 25 24 24 23 23 22 22 21 20 19 18 18 17 16 16 15 14 14 13 13 12 12 11 11 11 11 10 10 10 9 9 9 9 9 9 9 9
28 28 27 27 25 26 26 26 27 27 27 26 26 25 25 24 23 22 22 21 20 19 18 17 17 16 15 15 14 14 13 12 12 12 11 11 11 10 10 10 10 9 9 9 9 9 9 9 9
27 27 27 27 27 26 26 27 28 28 27 27 27 26 25 24 23 22 21 20 19 19 18 17 17 16 15 14 14 13 13 12 12 11 11 11 10 10 10 10 10 9 9 9 9 9 9 9 9
28 28 27 26 26 26 26 27 28 28 28 27 27 26 25 24 23 22 21 20 19 19 18 17 16 16 15 14 14 13 13 12 11 11 11 10 10 10 10 10 9 9 9 9 9 8 9 9 9
Wind_Speed
16 12 7 5 5 5 4 6 5 5 5 8 7 5 6 8 5 6 7 13 15 16 17 17 14 12 11 11 11 12 12 13 13 13 12 11 10 9 8 8 7 6 5 4 3 3 4 4 5
13 9 6 5 5 2 5 6 7 7 5 5 6 7 9 9 8 8 9 13 16 16 17 16 15 13 11 11 10 11 11 12 12 12 11 10 9 8 8 7 6 5 5 4 3 3 3 4 4
11 8 5 4 4 3 3 6 5 3 3 2 5 6 6 7 6 6 11 16 16 15 15 16 15 13 12 11 10 10 10 10 10 10 10 9 8 8 7 6 6 6 5 5 5 4 4 4 4
7 5 5 6 2 3 3 5 4 3 5 5 6 8 7 7 4 8 14 16 16 15 15 17 14 13 12 11 10 10 10 9 9 9 9 8 8 7 7 6 6 6 6 6 5 5 5 5 5
6 5 7 6 1 3 3 4 1 3 4 6 6 9 7 6 9 12 13 15 15 14 14 17 14 13 12 11 10 10 9 9 9 8 8 8 8 8 8 7 7 7 6 6 6 6 6 6 6
5 5 9 6 3 3 5 4 5 7 8 8 8 10 6 6 9 10 11 12 13 13 12 15 13 11 11 10 9 9 8 8 8 8 8 8 8 8 8 8 8 8 7 7 7 7 7 7 8
7 6 7 4 2 4 5 4 5 7 8 7 5 8 8 8 9 10 10 11 12 11 11 11 12 11 9 8 7 6 6 6 6 6 6 7 7 8 9 9 9 9 9 9 8 8 9 9 9
5 6 7 6 4 3 4 4 5 4 7 6 3 6 8 11 11 11 11 10 10 9 8 8 7 8 8 8 6 4 3 2 3 4 5 6 8 10 10 10 11 10 9 9 10 10 10 10 10
5 7 7 4 2 2 3 3 4 3 7 6 5 6 13 17 14 13 12 11 10 7 6 5 6 5 4 4 5 4 3 2 4 6 7 8 9 9 10 11 7 9 10 10 11 11 10 10 12
5 8 3 2 3 4 4 2 1 4 6 8 10 13 17 16 14 14 13 13 11 9 6 5 4 5 4 3 3 1 1 1 4 4 4 6 6 7 8 3 6 10 11 11 12 11 11 12 12
5 5 3 4 5 6 4 1 1 4 5 6 11 15 16 14 13 12 12 11 10 9 7 6 5 4 3 3 2 0 1 1 3 4 4 6 6 7 8 6 7 9 11 11 10 11 12 12 10
5 5 6 6 6 6 5 2 2 2 4 6 11 15 14 13 12 11 10 10 9 8 7 6 5 4 3 2 2 1 1 2 3 3 4 5 4 5 5 5 6 6 6 6 7 7 9 10 10
8 6 4 4 4 3 3 3 3 6 7 10 12 12 12 11 10 9 8 8 8 7 7 5 4 4 4 3 2 2 2 3 4 5 6 6 5 4 5 4 5 6 5 5 5 6 7 8 9
3 5 4 2 0 2 5 6 5 6 8 10 10 10 9 9 9 9 9 9 8 7 6 6 6 5 4 4 3 3 4 4 5 6 8 8 7 5 5 4 4 4 4 4 4 5 5 6 7
5 5 4 3 2 4 6 6 5 7 8 9 9 8 8 8 8 8 8 8 8 7 7 6 7 6 5 5 4 4 4 6 6 7 8 9 8 7 6 5 4 3 4 3 4 4 5 6 7
7 7 5 5 3 4 7 4 8 7 7 8 7 7 7 7 7 7 7 8 8 8 7 6 6 6 6 5 4 5 5 6 6 6 7 9 9 8 7 5 4 3 4 4 3 4 5 5 6
7 4 0 4 2 3 6 1 8 6 6 7 6 6 7 7 7 6 7 8 7 7 7 6 5 5 5 5 4 4 4 5 5 6 8 8 8 8 7 5 4 5 5 4 5 4 5 6 6
4 4 2 0 2 4 5 2 7 6 5 5 5 5 6 6 7 7 6 6 6 6 6 6 6 5 4 3 2 1 2 3 4 5 7 8 8 8 8 5 4 6 6 5 4 4 4 6 7
7 6 4 1 1 3 3 4 7 7 7 6 5 4 5 6 7 7 7 7 7 7 7 6 5 5 4 2 2 2 2 3 4 4 6 7 8 8 7 7 5 6 6 6 7 6 7 7 6
6 6 1 3 2 2 3 4 6 7 7 7 7 8 7 7 8 9 9 9 9 8 8 7 7 6 5 3 2 1 3 3 4 4 4 6 7 8 7 6 8 6 6 7 7 7 8 8 6
4 5 2 3 5 4 4 6 6 7 7 7 9 10 10 10 10 11 11 10 10 9 9 8 8 7 6 4 4 3 3 4 4 5 4 6 7 7 7 7 7 7 8 7 7 8 9 9 7
3 2 1 5 5 2 3 2 6 8 9 10 11 11 11 11 11 11 11 11 11 10 10 9 9 8 7 6 6 6 6 7 6 6 5 6 6 6 6 7 7 7 7 6 8 6 7 8 8
3 2 3 4 3 2 1 2 5 8 9 11 13 13 13 12 12 12 12 11 10 10 10 9 9 9 8 7 6 6 7 6 6 6 5 7 5 5 6 6 6 6 7 6 7 7 8 8 8
6 4 5 6 6 1 2 3 4 6 9 11 13 13 13 12 12 12 11 10 9 9 9 9 9 8 8 8 7 7 6 6 7 7 7 7 6 5 4 5 5 6 6 6 7 7 8 7 8
5 5 4 3 2 3 2 3 2 6 8 10 11 12 13 12 12 11 11 10 10 9 8 7 7 7 7 7 7 6 6 6 7 8 7 7 7 6 4 5 5 6 6 7 7 7 8 8 8
2 6 6 6 6 2 2 1 3 6 8 8 9 10 11 12 11 11 10 9 8 7 7 6 6 6 6 7 6 6 6 7 6 6 7 8 7 7 6 6 7 7 7 7 7 8 8 7 8
2 3 5 4 4 3 2 1 3 7 9 11 11 11 11 11 10 9 8 8 7 6 6 6 6 6 6 6 6 6 7 7 7 7 8 8 7 7 7 8 8 8 8 8 8 8 8 8 9
3 0 2 5 5 4 0 1 1 6 9 11 12 11 11 10 9 8 7 7 6 6 6 5 6 6 6 6 7 6 7 8 8 9 9 9 9 9 9 10 10 10 9 9 9 10 9 9 9
4 3 3 4 5 6 4 2 3 3 6 9 11 11 10 10 9 8 8 7 7 6 6 6 6 6 6 7 7 7 8 9 9 9 10 10 10 10 10 10 11 11 11 10 10 11 11 11 11
4 3 4 6 5 5 7 3 6 4 5 7 8 9 9 9 9 9 9 8 7 7 7 6 6 6 6 7 7 8 9 9 10 10 10 10 10 11 11 11 12 12 12 11 11 12 12 12 12
Wind_Direction
173 182 205 230 245 226 68 53 28 28 53 53 54 56 60 45 27 78 112 138 139 143 141 148 147 146 141 134 127 125 125 126 129 131 133 134 136 139 144 149 154 156 155 145 131 114 100 97 102
173 180 211 239 264 224 90 48 39 47 76 91 79 76 78 69 60 96 128 138 145 143 145 149 144 146 144 139 133 129 127 127 129 131 134 136 139 144 151 159 165 170 172 168 164 151 131 120 118
170 205 245 252 268 334 33 35 27 71 94 112 93 68 65 64 81 108 130 145 148 141 141 137 146 149 148 146 142 139 137 136 136 139 142 144 148 154 163 173 181 188 190 188 189 184 163 151 146
182 215 236 250 267 36 360 351 346 153 112 93 110 94 86 41 40 111 135 149 145 143 147 139 150 150 152 152 152 151 150 150 149 151 154 158 164 171 180 190 198 202 200 200 205 199 186 174 170
227 248 244 233 204 52 18 1 359 167 115 100 109 104 89 52 77 116 139 147 147 148 143 141 150 152 155 158 160 161 162 163 164 167 171 176 182 190 195 203 210 215 213 211 215 210 201 191 186
229 246 249 229 136 80 59 57 109 118 111 105 106 111 91 92 104 120 135 147 147 147 144 138 147 152 157 162 163 164 167 171 176 183 188 194 201 208 212 215 220 224 224 222 221 221 215 207 201
262 256 254 240 170 112 63 61 92 123 115 95 105 114 121 116 115 124 132 140 144 147 143 145 155 157 159 157 155 160 166 175 184 195 207 216 224 230 230 230 230 232 233 231 227 226 221 216 212
274 262 238 217 197 114 69 77 75 84 101 99 114 130 142 136 130 129 132 137 139 142 142 144 153 149 161 159 145 144 152 181 207 218 229 238 242 240 236 237 228 232 238 239 236 232 228 221 218
254 249 236 211 204 95 49 72 83 91 114 100 78 91 120 132 138 138 140 141 139 136 137 142 139 137 151 151 132 163 166 195 236 222 222 242 249 249 233 234 223 235 241 242 242 238 233 228 222
237 248 248 331 316 328 350 9 107 148 129 112 106 108 123 138 147 151 152 151 150 145 140 132 127 136 144 126 121 122 224 219 269 280 261 256 263 271 270 254 242 249 249 247 241 240 236 232 228
239 265 319 306 307 304 296 272 201 191 140 130 140 138 142 146 154 155 155 155 150 145 141 135 135 131 131 126 112 107 303 316 297 309 301 286 281 272 270 264 246 243 241 244 232 228 233 230 228
250 271 287 299 311 290 276 219 141 65 81 111 137 144 148 152 153 154 154 149 144 143 139 132 127 122 120 120 137 160 3 350 341 342 328 306 287 279 274 268 264 258 252 249 250 241 241 242 236
245 277 294 309 309 279 216 172 126 94 99 115 129 142 145 147 146 145 143 146 145 143 136 127 116 111 122 121 120 88 53 23 25 5 359 332 308 301 296 285 278 269 264 249 247 248 249 248 243
283 275 280 287 335 153 154 142 139 109 119 124 132 137 140 142 147 148 152 150 141 135 130 123 111 106 114 113 98 74 56 44 24 22 14 357 337 332 312 289 282 275 272 276 268 261 257 250 249
267 253 209 171 163 152 172 154 120 127 137 135 135 135 135 139 150 155 151 146 140 137 131 131 128 125 118 110 98 82 61 45 31 27 21 8 354 344 320 300 282 286 274 262 261 263 260 256 253
233 232 206 137 172 171 236 183 127 146 152 146 142 142 147 146 149 147 145 144 141 138 135 138 132 123 114 98 88 77 53 44 34 23 18 13 2 349 321 306 298 303 278 268 265 262 269 270 270
216 251 282 133 167 199 239 163 140 163 169 160 158 156 156 151 150 146 150 153 147 146 146 145 132 131 120 110 99 82 66 41 25 16 14 7 357 351 326 316 327 294 278 274 278 283 288 287 284
330 312 306 177 147 220 231 167 149 165 173 163 157 164 166 165 159 153 161 160 160 163 164 159 155 148 152 146 139 107 47 24 15 14 16 2 355 356 337 313 331 305 289 283 282 290 282 287 283
301 296 304 78 151 227 215 187 163 169 177 169 167 178 185 174 161 165 179 182 180 179 180 181 184 173 192 205 250 295 329 342 348 357 12 357 354 352 341 330 327 308 300 302 289 283 278 275 289
265 270 242 137 155 231 185 171 163 176 184 178 177 188 192 181 180 185 192 196 198 195 198 200 205 205 214 206 247 290 319 317 331 338 351 346 346 338 333 343 316 318 308 284 285 278 287 288 279
276 292 293 167 164 181 192 165 169 178 186 185 189 191 193 193 191 192 198 203 206 209 211 214 215 215 220 217 234 237 252 273 296 324 327 339 331 327 329 324 322 321 302 302 301 288 275 280 279
324 18 217 179 206 163 239 210 165 179 186 191 193 196 199 198 198 200 203 209 215 219 219 220 221 222 220 222 246 269 290 303 318 313 321 321 312 316 316 316 317 315 310 314 294 295 291 275 274
43 102 173 198 225 195 219 281 135 173 184 192 197 199 199 199 203 208 214 219 224 227 227 224 225 227 225 229 235 249 274 294 302 307 306 305 310 308 312 312 313 311 304 317 314 308 292 281 275
139 162 184 212 230 222 36 298 133 168 179 181 189 193 197 200 206 212 220 224 230 231 231 229 225 226 223 227 233 247 272 284 295 298 305 303 307 307 315 307 307 301 309 309 301 300 284 286 288
223 278 275 248 248 59 91 284 101 144 171 178 182 188 194 200 207 212 219 222 224 227 228 229 223 224 221 224 231 240 256 267 268 281 294 298 304 309 318 309 298 300 301 296 296 289 292 285 282
289 310 330 329 343 28 155 316 114 155 171 183 190 189 193 201 206 212 216 219 222 221 217 215 213 216 216 223 230 238 249 263 274 276 290 294 296 306 314 294 286 285 286 288 289 285 277 276 279
268 316 350 300 300 299 68 116 160 175 191 194 195 195 199 204 207 211 211 214 208 202 199 203 205 215 224 234 234 243 251 264 277 278 268 277 285 288 289 288 284 281 278 279 280 277 281 277 272
328 292 279 309 326 320 334 222 118 178 197 198 200 202 201 198 201 201 199 191 184 183 184 194 206 222 236 241 248 254 257 258 262 270 281 285 285 282 282 282 282 280 277 271 268 272 263 264 265
186 214 276 294 311 310 320 10 101 182 198 202 204 203 199 198 196 188 180 175 176 182 189 199 211 227 241 253 256 265 267 268 266 265 270 275 279 281 277 278 279 279 277 274 268 268 272 264 264
260 273 260 287 295 282 298 317 128 186 203 213 216 203 199 196 190 180 174 177 187 198 204 211 226 241 252 260 263 266 269 270 269 270 273 275 276 276 278 278 278 278 278 276 272 270 270 265 262
Height
1532 1533 1536 1538 1531 1518 1513 1512 1509 1508 1509 1513 1513 1512 1512 1516 1518 1529 1534 1534 1536 1539 1540 1541 1544 1547 1549 1551 1553 1555 1557 1558 1559 1560 1561 1562 1563 1563 1564 1564 1565 1565 1566 1566 1567 1567 1567 1568 1568
1533 1535 1538 1535 1521 1515 1516 1511 1511 1512 1514 1515 1516 1516 1517 1523 1528 1531 1533 1535 1538 1541 1542 1544 1546 1548 1551 1553 1555 1556 1558 1559 1560 1561 1562 1563 1564 1564 1564 1565 1565 1566 1566 1567 1567 1568 1568 1568 1569
1534 1536 1536 1525 1515 1516 1516 1512 1513 1514 1516 1516 1517 1519 1522 1528 1532 1534 1535 1537 1541 1543 1545 1545 1548 1550 1552 1554 1556 1558 1559 1560 1561 1562 1563 1564 1564 1565 1565 1565 1566 1566 1566 1567 1568 1568 1568 1569 1569
1536 1537 1533 1521 1515 1515 1516 1514 1514 1513 1516 1517 1518 1522 1528 1533 1534 1536 1536 1540 1543 1545 1547 1547 1549 1552 1554 1556 1557 1559 1560 1561 1562 1563 1564 1565 1565 1565 1565 1566 1566 1566 1567 1567 1568 1568 1569 1569 1570
1536 1532 1521 1514 1514 1514 1514 1514 1513 1512 1514 1518 1519 1524 1531 1534 1534 1536 1539 1542 1545 1548 1550 1549 1551 1553 1555 1557 1558 1560 1561 1562 1563 1564 1564 1565 1565 1565 1565 1566 1566 1566 1567 1567 1568 1568 1569 1569 1570
1534 1527 1519 1514 1515 1514 1513 1514 1513 1514 1517 1520 1521 1525 1533 1535 1536 1537 1540 1544 1547 1549 1551 1550 1552 1554 1556 1557 1559 1560 1561 1562 1563 1563 1564 1564 1565 1565 1565 1565 1565 1566 1566 1566 1567 1568 1568 1569 1570
1532 1523 1516 1515 1516 1515 1515 1515 1514 1515 1518 1522 1524 1526 1534 1536 1537 1538 1541 1544 1547 1550 1552 1552 1554 1555 1556 1557 1558 1559 1560 1561 1562 1562 1563 1563 1564 1564 1564 1564 1564 1565 1565 1566 1566 1567 1567 1568 1569
1532 1524 1516 1514 1516 1515 1515 1516 1518 1517 1521 1525 1525 1526 1532 1536 1536 1538 1541 1544 1548 1550 1552 1553 1555 1556 1557 1558 1558 1558 1559 1560 1561 1561 1561 1562 1562 1562 1562 1563 1563 1563 1563 1564 1564 1565 1566 1567 1567
1533 1526 1517 1514 1517 1514 1516 1516 1520 1521 1522 1525 1527 1528 1531 1534 1537 1540 1543 1545 1548 1550 1552 1554 1555 1556 1557 1558 1558 1559 1559 1559 1560 1560 1560 1560 1561 1562 1562 1561 1561 1561 1561 1562 1562 1563 1564 1564 1565
1530 1522 1516 1517 1518 1517 1518 1519 1520 1520 1522 1525 1529 1531 1532 1535 1539 1542 1544 1546 1548 1550 1551 1552 1554 1555 1557 1558 1558 1558 1559 1559 1559 1560 1559 1559 1559 1559 1560 1559 1558 1559 1559 1559 1560 1560 1561 1562 1563
1527 1521 1519 1519 1520 1520 1519 1519 1520 1518 1520 1524 1529 1532 1535 1538 1541 1543 1546 1548 1549 1550 1551 1552 1554 1555 1556 1557 1557 1558 1558 1558 1558 1558 1557 1557 1557 1556 1557 1557 1556 1556 1556 1557 1557 1557 1558 1559 1560
1526 1523 1523 1521 1521 1520 1519 1519 1520 1522 1525 1527 1530 1533 1536 1539 1542 1544 1546 1548 1550 1551 1551 1552 1554 1554 1555 1556 1557 1557 1557 1557 1557 1556 1555 1554 1555 1554 1554 1554 1554 1554 1554 1553 1554 1554 1555 1556 1556
1525 1522 1522 1522 1520 1520 1520 1520 1523 1527 1529 1530 1532 1535 1538 1540 1542 1545 1547 1548 1550 1551 1552 1553 1554 1554 1555 1556 1557 1558 1557 1557 1556 1555 1554 1553 1553 1552 1552 1551 1551 1551 1551 1551 1550 1550 1551 1551 1552
1522 1522 1521 1521 1520 1521 1520 1522 1524 1530 1531 1533 1535 1537 1539 1541 1543 1545 1547 1548 1549 1551 1552 1553 1554 1555 1556 1557 1557 1557 1557 1556 1556 1554 1553 1551 1551 1550 1550 1549 1548 1548 1548 1548 1547 1547 1547 1547 1548
1522 1520 1518 1519 1520 1521 1521 1522 1525 1531 1533 1535 1536 1538 1540 1542 1544 1546 1547 1548 1550 1551 1552 1554 1555 1556 1556 1557 1557 1557 1557 1556 1555 1553 1551 1550 1549 1548 1547 1547 1547 1546 1545 1544 1544 1544 1544 1544 1544
1517 1514 1513 1517 1519 1521 1521 1520 1529 1533 1534 1536 1538 1539 1541 1542 1544 1546 1547 1549 1550 1551 1552 1554 1556 1556 1556 1557 1557 1557 1556 1555 1554 1552 1550 1548 1546 1545 1545 1545 1545 1543 1543 1543 1542 1542 1542 1542 1541
1511 1511 1512 1516 1518 1518 1518 1519 1529 1533 1534 1536 1538 1540 1541 1543 1544 1546 1547 1549 1550 1552 1553 1554 1555 1556 1556 1557 1557 1556 1555 1554 1552 1551 1549 1546 1544 1543 1543 1543 1542 1541 1541 1541 1540 1540 1539 1539 1538
1513 1510 1512 1515 1517 1517 1518 1520 1527 1532 1534 1536 1538 1540 1541 1543 1545 1546 1548 1549 1550 1552 1553 1554 1555 1556 1556 1557 1556 1556 1555 1554 1552 1550 1546 1544 1543 1541 1540 1540 1538 1539 1539 1538 1538 1537 1536 1535 1534
1511 1512 1514 1516 1518 1517 1519 1522 1527 1531 1534 1536 1538 1540 1542 1543 1545 1546 1548 1550 1551 1552 1553 1554 1555 1555 1556 1556 1557 1556 1555 1553 1551 1549 1545 1543 1541 1539 1537 1538 1536 1535 1536 1535 1535 1534 1534 1533 1531
1510 1512 1512 1518 1519 1518 1520 1523 1526 1530 1532 1534 1536 1539 1541 1543 1545 1546 1548 1550 1551 1552 1552 1553 1554 1555 1555 1555 1554 1553 1552 1551 1549 1547 1544 1541 1539 1537 1537 1534 1534 1533 1532 1531 1531 1530 1530 1530 1529
1507 1508 1510 1515 1519 1518 1519 1525 1527 1529 1532 1534 1536 1538 1539 1541 1543 1545 1547 1549 1550 1551 1552 1553 1553 1553 1553 1553 1552 1551 1550 1549 1548 1546 1543 1540 1537 1535 1533 1532 1531 1529 1529 1529 1527 1527 1527 1526 1526
1507 1507 1509 1513 1515 1516 1518 1525 1524 1524 1528 1531 1534 1536 1537 1540 1542 1544 1545 1547 1548 1549 1550 1550 1550 1550 1550 1550 1550 1550 1549 1547 1545 1543 1541 1538 1535 1533 1531 1529 1527 1526 1526 1525 1524 1524 1523 1523 1523
1509 1508 1508 1510 1511 1513 1515 1517 1519 1520 1524 1526 1529 1532 1534 1537 1539 1541 1543 1545 1546 1547 1548 1548 1548 1548 1547 1547 1546 1546 1545 1544 1543 1540 1538 1535 1533 1530 1528 1526 1525 1523 1523 1521 1520 1519 1519 1520 1520
1510 1510 1509 1507 1504 1517 1518 1518 1520 1514 1517 1519 1524 1528 1531 1534 1536 1539 1540 1542 1543 1544 1544 1545 1544 1544 1544 1543 1543 1542 1541 1540 1538 1537 1535 1534 1532 1529 1527 1524 1522 1521 1520 1518 1517 1516 1516 1516 1515
1508 1509 1513 1514 1514 1517 1516 1515 1515 1510 1512 1515 1519 1524 1528 1531 1533 1535 1537 1538 1539 1540 1541 1542 1541 1541 1541 1540 1539 1538 1537 1536 1534 1534 1533 1531 1529 1528 1525 1522 1520 1518 1517 1515 1514 1513 1512 1512 1511
1505 1506 1518 1527 1521 1513 1513 1515 1508 1508 1512 1516 1518 1521 1524 1527 1529 1531 1533 1535 1536 1537 1538 1538 1538 1538 1537 1537 1536 1534 1533 1533 1533 1531 1529 1528 1526 1524 1521 1519 1517 1515 1514 1513 1511 1510 1510 1509 1507
1504 1503 1502 1510 1512 1515 1511 1509 1504 1507 1510 1513 1515 1518 1521 1523 1526 1528 1530 1532 1533 1534 1535 1535 1535 1535 1534 1534 1532 1531 1530 1529 1528 1527 1525 1524 1522 1520 1518 1516 1514 1512 1511 1509 1507 1507 1506 1505 1504
1503 1503 1506 1510 1523 1522 1515 1511 1507 1505 1505 1507 1511 1514 1517 1520 1523 1525 1527 1529 1530 1531 1531 1532 1532 1531 1531 1530 1529 1529 1527 1525 1524 1523 1522 1520 1518 1516 1514 1512 1510 1509 1507 1505 1504 1503 1502 1501 1499
1507 1507 1506 1505 1510 1520 1520 1511 1494 1498 1500 1502 1506 1510 1513 1516 1519 1522 1524 1526 1527 1528 1528 1528 1528 1528 1527 1526 1525 1524 1523 1522 1520 1519 1517 1516 1514 1512 1510 1508 1506 1504 1503 1501 1500 1498 1497 1496 1495
1499 1501 1505 1513 1513 1511 1513 1507 1491 1495 1497 1500 1502 1506 1510 1513 1516 1519 1521 1523 1524 1525 1526 1526 1525 1525 1524 1523 1521 1520 1519 1517 1516 1515 1513 1511 1509 1507 1506 1504 1501 1500 1498 1497 1495 1493 1492 1491 1490